Regional Weather Roundup
Issued by NWS

Home | Current Version | Previous Version | Text Only | Print | Product List | Glossary On
Versions: 1 2 3 4 5 6 7 8 9 10 11 12 13 14 15 16 17 18 19 20 21 22 23 24 25 26 27 28 29 30 31 32 33 34 35 36 37 38 39 40 41 42 43 44 45 46 47 48 49 50
472
ASUS45 KPSR 291310
RWRAZ

ARIZONA HOURLY REGIONAL WEATHER ROUNDUP
NATIONAL WEATHER SERVICE PHOENIX AZ
600 AM MST FRI APR 29 2016

NOTE: FAIR INDICATES FEW OR NO CLOUDS BELOW 12,000 FEET WITH NO
SIGNIFICANT WEATHER AND/OR OBSTRUCTIONS TO VISIBILITY.

AZZ001>003-036-291400-
NORTHWEST ARIZONA

CITY           SKY/WX    TMP DP  RH WIND       PRES   REMARKS
BULLHEAD CITY  CLEAR     57  48  72 NE3       29.88S
KINGMAN        CLEAR     43  40  89 SE8       29.90S
$$

AZZ004>008-015-016-018-291400-
NORTH CENTRAL ARIZONA

CITY           SKY/WX    TMP DP  RH WIND       PRES   REMARKS
GRAND CANYON   CLOUDY    38  36  92 CALM      29.91R
WILLIAMS       CLOUDY    37  34  87 W6        29.99R WCI  33
PRESCOTT       MOCLDY    41  39  93 CALM      29.91R
FLAGSTAFF      CLOUDY    35  34  96 W7        29.91R WCI  29
PAYSON         CLOUDY    46  32  57 CALM      29.92R
PAGE           CLOUDY    47  45  93 N3        29.85R
$$

AZZ009>014-017-291400-
NORTHEAST ARIZONA

CITY           SKY/WX    TMP DP  RH WIND       PRES   REMARKS
WINSLOW        PTCLDY    36  28  73 CALM      29.87S
SAINT JOHNS    CLOUDY    41  27  57 CALM      29.88R
WINDOW ROCK    CLOUDY    32  17  54 NE3       29.88R
SHOW LOW       CLOUDY    37  18  44 SW10      29.91R WCI  30
$$

AZZ023-291400-
GREATER PHOENIX AREA

CITY           SKY/WX    TMP DP  RH WIND       PRES   REMARKS
PHOENIX        MOCLDY    65  38  36 W6        29.82S
BUCKEYE        CLOUDY    55  34  44 W3        29.86R
GLENDALE       MOCLDY    63  39  42 S6        29.84
LUKE AFB       MOCLDY    62  40  43 SW8       29.83R
DEER VALLEY    CLOUDY    62  37  39 S5        29.83R
SCOTTSDALE     CLOUDY    63  37  38 W3        29.85R
MESA-FALCON    MOCLDY   N/A N/A N/A MISG      29.82
MESA-GATEWAY   MOCLDY    57  36  44 SE8       29.86R
CHANDLER       MOCLDY    61  41  48 E3        29.84
$$

AZZ027-028-291400-
SOUTHWEST MARICOPA COUNTY AND PINAL COUNTY

CITY           SKY/WX    TMP DP  RH WIND       PRES   REMARKS
CASA GRANDE    CLOUDY    57  30  35 S3        29.88R
GILA BEND      FAIR      56  35  45 S5        29.85R
$$

AZZ503-504-507>509-291400-
SOUTHEAST ARIZONA

CITY           SKY/WX    TMP DP  RH WIND       PRES   REMARKS
TUCSON         CLEAR     50  30  46 SE5       29.93R
DAVIS-MONTHAN  CLEAR     49  30  47 SE7       29.91R
RYAN FIELD     CLEAR    N/A N/A N/A CALM      29.93
NOGALES        CLEAR     39  29  67 CALM      29.94R
SIERRA VISTA   CLEAR     44  27  50 SW7       29.95R
DOUGLAS        CLEAR     37  24  59 NE6       29.93R WCI  32
SAFFORD        CLEAR     51  26  37 NW8       29.87R
$$

AZZ020-021-025-026-031-291400-
SOUTHWEST ARIZONA

CITY           SKY/WX    TMP DP  RH WIND       PRES   REMARKS
YUMA           PTCLDY    58  43  57 S3        29.86R
$$

CAZ031-033-041-043-047-048-061-291400-
SOUTHERN CALIFORNIA

CITY           SKY/WX    TMP DP  RH WIND       PRES   REMARKS
DOWNTOWN L.A.  MOCLDY    58  49  72 VRB3      29.98S
L.A. AIRPORT   MOCLDY    57  49  74 NE5       29.99S
SAN DIEGO      MOCLDY    59  46  62 E5        30.00S
BURBANK        CLOUDY    52  45  77 N3        29.98S
ONTARIO        PTCLDY    50  45  83 CALM      29.99R
RIVERSIDE      CLEAR     50  44  80 CALM      29.99R
PALM SPRINGS   CLEAR     59  44  57 CALM      29.87R
EL CENTRO NAS  PTCLDY    58  39  49 W8        29.86R
IMPERIAL       CLEAR     56  41  57 W6        29.84R
BLYTHE         CLEAR     56  42  59 CALM      29.83S
NEEDLES        CLEAR     58  53  84 SW7       29.85R
$$

NVZ020-UTZ003-291400-
SOUTHERN NEVADA-UTAH

CITY           SKY/WX    TMP DP  RH WIND       PRES   REMARKS
LAS VEGAS      PTCLDY    54  44  69 CALM      29.82S
SALT LAKE CITY MOCLDY    45  33  63 E7        29.86S
$$

NMZ009-TXZ055-291400-
NEW MEXICO-WEST TEXAS

CITY           SKY/WX    TMP DP  RH WIND       PRES   REMARKS
ALBUQUERQUE    PTCLDY    42  39  89 SW3       29.85R
EL PASO        CLEAR     58  21  24 NW20G28   29.86R
$$


........................KEY........................
SKY/WX - SKY CONDITION/WEATHER
TMP    - TEMPERATURE IN FAHRENHEIT
DP     - DEW POINT IN FAHRENHEIT
RH     - RELATIVE HUMIDITY IN PERCENT
WIND   - DIRECTION AND SPEED IN MILES PER HOUR (MPH)
VRB    - VARIABLE WIND DIRECTION
PRES   - MEAN SEA LEVEL PRESSURE IN INCHES OF MERCURY
         F - FALLING PRESSURE   R - RISING PRESSURE
         S - STEADY PRESSURE
VSB    - VISIBILITY IN MILES
HX     - HEAT INDEX IN FAHRENHEIT
WCI    - WIND CHILL INDEX IN FAHRENHEIT
TC     - TEMPERATURE IN CELSIUS WHICH IS ALSO KNOWN AS
         TEMPERATURE IN CENTIGRADE
AFB    - AIR FORCE BASE
         LUKE AFB IS LUKE AIR FORCE BASE
         DAVIS-MONTHAN IS DAVIS-MONTHAN AIR FORCE BASE
NAS    - NAVAL AIR STATION
         EL CENTRO NAS IS EL CENTRO NAVAL AIR STATION
N/A    - NOT AVAILABLE





USA.gov is the U.S. government's official web portal to all federal, state and local government web resources and services.